Home > Weather > Chatham-Kent > Past weeks

Flag for Canada Past Weather in Chatham-Kent, Ontario, Canada — Yesterday and Last 2 Weeks

Now
81 °F

Passing clouds.


Feels Like: 80 °F
Forecast: 54 / 70 °F
Wind: 9 mph from Southwest

Location: Windsor Weather Station

Current Time: May 24, 2016 at 1:45:46 PM

Latest Report: May 24, 2016 at 1:00 PM


Visibility: 15 mi

Pressure: 30.02 "Hg

Humidity: 32%

Dew Point: 48 °F

Location of Chatham-KentLocation

Past Weather in Chatham-Kent — Graph

°F

Chatham-Kent Temperature Yesterday

Maximum temperature yesterday: 75 °F (at 4:00 PM)
Minimum temperature yesterday: 46 °F (at 2:00 AM)
Average temperature yesterday: 61 °F

High & Low Weather Summary for the Past Weeks

 TemperatureHumidityPressure
High79 °F (May 24, 12:00 PM)100% (May 13, 12:00 AM)30.26 "Hg (May 13, 12:00 AM)
Low34 °F (May 15, 8:00 AM)29% (May 23, 6:00 PM)29.55 "Hg (May 14, 6:00 AM)
Average56 °F65%30.05 "Hg
* Reported May 9 12:00 PM — May 24 12:00 PM, Chatham-Kent, Weather by CustomWeather, © 2016

Note: Actual official high and low records may vary slightly from our data, if they occured in-between our weather recording intervals... More about our weather records

Advertising

Chatham-Kent Weather History for the Previous 24 Hours

Scroll right to see more
 ConditionsComfort  
Time TempWeatherWind HumidityBarometerVisibility
12:00 PM
Tue, May 24
79 °FSunny.10 mph32%30.03 "Hg15 mi
11:00 AM75 °FSunny.9 mph36%30.04 "Hg15 mi
10:00 AM72 °FSunny.7 mph50%30.05 "Hg15 mi
9:00 AM66 °FSunny.7 mph60%30.05 "Hg15 mi
8:00 AM61 °FSunny.5 mph77%30.04 "Hg12 mi
7:00 AM54 °FClear.5 mph88%30.03 "Hg15 mi
6:00 AM52 °FPassing clouds.7 mph94%30.01 "Hg12 mi
5:00 AM54 °FClear.5 mph88%29.99 "Hg12 mi
4:00 AM55 °FClear.3 mph88%29.99 "Hg12 mi
3:00 AM55 °FClear.3 mph88%30.00 "Hg15 mi
2:00 AM57 °FClear.2 mph77%30.01 "Hg15 mi
1:00 AM57 °FClear.2 mph72%30.01 "Hg15 mi
12:00 AM59 °FClear.3 mph68%30.01 "Hg15 mi
11:00 PM
Mon, May 23
59 °FPassing clouds.3 mph68%30.01 "Hg15 mi
10:00 PM61 °FPassing clouds.7 mph63%30.00 "Hg15 mi
9:00 PM66 °FPassing clouds.8 mph49%29.98 "Hg15 mi
8:00 PM72 °FSunny.10 mph36%29.98 "Hg15 mi
7:00 PM73 °FSunny.9 mph33%29.98 "Hg15 mi
6:00 PM75 °FSunny.13 mph29%29.98 "Hg15 mi
5:00 PM75 °FSunny.13 mph36%30.01 "Hg15 mi
4:00 PM75 °FSunny.8 mph39%30.02 "Hg15 mi
3:00 PM73 °FSunny.5 mph36%30.03 "Hg15 mi
2:00 PM73 °FSunny.8 mph38%30.05 "Hg15 mi
1:00 PM72 °FSunny.8 mph36%30.07 "Hg15 mi
Weather by CustomWeather, © 2016

See weather overviewHow to use our weather pages